Location: Unspecified
(33.9360°N, 83.4200°W)
Time: 08:36:32
(UTC-04:00)

Daily predictions for brighter satellites

Satellite Brightness Start Highest point End
(mag) Time Altitude Azimuth Time Altitude Azimuth Time Altitude Azimuth
Cosmos 1655 Rocket 4.1 21:06:43 10° N 21:12:56 66° E 21:19:05 10° SSE
Cosmos 1371 Rocket 4.3 21:10:22 10° NNW 21:15:32 73° WSW 21:20:39 10° S
Cosmos 2263 Rocket 2.6 21:11:53 10° SSW 21:17:33 72° WNW 21:23:14 10° NNE
YAOGAN 6 2.5 21:14:08 10° SSE 21:17:41 89° E 21:21:12 10° N
Cosmos 1733 3.1 21:14:05 10° N 21:17:52 76° E 21:21:37 10° S
Cosmos 158 Rocket 4.0 21:12:47 10° S 21:18:05 70° ESE 21:23:18 10° NNE
Spot 2 Rocket 4.1 21:17:50 10° SE 21:22:29 39° ENE 21:27:10 10° N
Cosmos 1452 Rocket 4.3 21:19:28 10° N 21:24:23 37° ENE 21:29:14 10° SE
Cosmos 1939 Rocket 2.9 21:21:21 10° SSE 21:25:27 90° ENE 21:29:31 10° NNW
Cosmos 1603 4.2 21:22:18 10° NNW 21:27:57 64° WSW 21:33:37 10° S
Cosmos 2056 Rocket 3.8 21:23:46 10° NNW 21:28:55 69° WSW 21:34:06 10° S
GENESIS II 4.5 21:25:34 10° S 21:29:14 45° ESE 21:32:58 10° NE
Cosmos 1758 4.2 21:32:52 10° NNW 21:36:50 51° W 21:40:45 10° S
Cosmos 972 4.4 21:32:17 10° SSW 21:37:18 88° ESE 21:42:12 10° NNE
Cosmos 1707 3.1 21:37:26 10° SSW 21:41:17 68° W 21:45:07 10° N
Cosmos 1607 4.0 21:37:57 10° NNW 21:44:20 82° ENE 21:50:02 13° SSE
H-2A R/B 3.3 21:40:36 12° ESE 21:44:22 27° ENE 21:48:46 10° NNE
Meteor 2-11 Rocket 4.4 21:39:21 10° S 21:45:25 88° E 21:51:31 10° N
SJ-11-01 4.4 21:43:17 10° S 21:48:02 79° WSW 21:52:47 10° NNW
Cosmos 1315 Rocket 3.0 21:46:42 10° S 21:50:35 50° E 21:54:33 10° NNE
Cosmos 1674 4.3 21:50:52 16° ESE 21:51:48 17° E 21:54:19 10° NE
Cosmos 1269 Rocket 4.2 21:47:22 10° S 21:52:28 51° ESE 21:57:35 10° NNE
Cosmos-2242 4.5 21:49:49 10° NNE 21:53:13 22° ENE 21:55:07 17° ESE
OAO 3 Copernicus 4.3 21:48:09 10° W 21:53:14 87° N 21:57:40 14° E
Resurs 1-3 4.1 21:49:20 10° S 21:53:38 60° W 21:57:59 10° NNW
Cosmos 1953 3.6 21:52:03 10° NNW 21:55:48 41° W 21:59:34 10° SSW
Hubble Space Telescope 2.8 21:58:28 10° WSW 22:00:56 15° SSW 22:02:30 13° S
H-II Stage 2 3.5 21:57:49 10° SW 22:01:14 16° S 22:01:48 15° S
USA 186 4.4 21:59:46 10° SW 22:02:11 19° W 22:04:32 10° NW
BREEZE-M R/B 2.2 22:00:38 10° WNW 22:03:38 52° SW 22:04:34 30° SSE
Cosmos 1812 Rocket 4.2 22:01:15 10° NNW 22:05:30 55° W 22:09:46 10° S
Cosmos 2278 Rocket 3.7 22:08:20 16° E 22:08:31 16° E 22:11:52 10° ENE
ERS-2 2.9 22:05:22 11° S 22:08:48 48° W 22:12:22 10° NNW
Cosmos 1943 4.0 22:04:21 10° NNW 22:09:45 47° WSW 22:15:06 10° S
Cosmos 1953 Rocket 3.5 22:06:08 12° S 22:10:06 70° E 22:14:27 10° NNE
Cosmos 1932 4.4 22:04:34 10° NNW 22:10:47 72° ENE 22:14:52 22° SE
ATLAS 2AS CENTAUR R/B 3.0 22:06:57 10° SSW 22:14:36 83° ESE 22:22:44 10° NNE
Cosmos 1238 Rocket 1.9 22:13:47 30° S 22:15:05 73° E 22:18:01 10° N
Cosmos 1726 4.1 22:13:07 10° NE 22:15:20 15° ENE 22:15:28 15° ENE
Cosmos 1758 Rocket 3.7 22:11:06 10° S 22:15:34 78° W 22:19:59 10° N
Timation 1 Rocket 4.3 22:10:15 10° S 22:16:04 61° ESE 22:21:57 10° NNE
Resurs 01 Rocket 3.1 22:12:46 10° SSW 22:16:46 34° W 22:20:48 10° NNW
Lacrosse 5 3.1 22:12:07 10° WSW 22:16:58 45° NW 22:21:49 10° NNE
OAO 3 Rocket 3.3 22:12:37 10° W 22:17:35 79° N 22:21:44 15° E
ARGOS 3.2 22:13:56 21° SSE 22:17:39 70° ENE 22:23:03 10° N
SEDSat Delta rocket 4.3 22:13:52 10° SSW 22:18:01 24° SSE 22:18:01 24° SSE
SL-8 R/B 4.1 22:13:52 10° WSW 22:18:39 66° NW 22:23:28 10° NE
Helios 1B rocket 4.1 22:21:04 10° NE 22:23:15 18° E 22:23:15 18° E
Cosmos 2251 Rocket 4.5 22:25:25 26° ESE 22:26:13 28° E 22:30:40 10° NE
MetOp-A 4.1 22:24:48 24° SSE 22:28:10 84° ENE 22:33:33 10° NNW
Iridium 4 Rocket 4.1 22:22:30 10° S 22:28:12 64° W 22:33:34 10° N
ERS-1 Rocket 3.3 22:26:47 30° SE 22:28:57 50° ENE 22:33:49 10° N
Cosmos 1844 3.6 22:24:21 10° S 22:29:58 71° ESE 22:35:41 10° NNE
Cosmos 1844 Rocket 2.7 22:24:28 10° SSW 22:30:08 86° WNW 22:35:50 10° NNE
Cosmos 1346 Rocket 2.9 22:27:45 10° N 22:31:43 58° E 22:32:47 42° SE
KORONAS-FOTON 4.1 22:33:26 43° ESE 22:33:54 45° E 22:37:40 10° NNE
SL-08 RB Rocket 3.7 22:35:38 33° SSE 22:37:45 88° ENE 22:42:27 10° NNW
Meteor 1-24 Rocket 4.1 22:32:57 10° SSW 22:38:56 70° W 22:44:58 10° N
Aurora 2 Rocket 4.3 22:35:02 10° WSW 22:41:19 41° SSE 22:45:05 28° ESE
ATLAS 3B CENTAUR R/B 4.1 22:23:31 10° SW 22:42:00 42° S 22:46:47 27° ESE
USA 215 3.7 22:40:27 25° SSE 22:44:09 51° SW 22:50:31 10° NW
Cosmos 1244 Rocket 4.5 22:41:55 10° N 22:48:18 86° E 22:51:37 31° S
Cosmos 921 Rocket 3.2 22:43:58 10° N 22:48:24 59° ENE 22:49:15 49° ESE
ATLAS 5 CENTAUR R/B 3.8 22:53:54 13° ENE 22:53:54 13° ENE 22:54:34 10° ENE
Cosmos 1745 Rocket 4.4 22:45:10 10° N 22:51:11 45° E 22:53:00 36° ESE
NOSS 3-4 (A) 3.7 22:50:38 37° SSE 22:52:13 44° ESE 22:58:08 10° NE
NOSS 3-4 (C) 3.7 22:50:51 37° SSE 22:52:19 44° ESE 22:58:12 10° NE
Landsat 7 4.3 22:54:52 41° E 22:55:34 44° ENE 23:00:05 10° N
SL-08 R/B 4.5 22:51:33 10° N 22:57:40 66° E 22:59:47 42° SSE
Cosmos 724 4.4 22:52:12 10° NNW 22:58:14 69° ENE 23:00:16 43° SE
Cosmos 1437 3.9 22:57:47 10° NNW 23:00:44 36° W 23:00:49 36° W
Cosmos 1908 3.1 22:58:46 10° N 23:02:38 81° W 23:02:49 77° SW
Cosmos 1461 3.2 23:08:01 57° E 23:08:01 57° E 23:12:13 10° NE
CARTOSAT-1 4.1 23:10:02 43° ENE 23:10:02 43° ENE 23:13:59 10° N
Cosmos 1626 4.3 23:14:08 16° NE 23:14:08 16° NE 23:15:17 10° NE
S3M 4.0 23:10:10 33° S 23:13:17 82° W 23:19:42 10° N
Cosmos 220 Rocket 4.0 23:13:14 67° SW 23:13:41 76° WNW 23:17:55 10° NNE
Meteor 2-1 Rocket 4.3 23:08:32 10° NNW 23:14:28 77° W 23:16:23 45° S
Terra 2.3 23:14:51 44° ENE 23:14:57 45° ENE 23:19:29 10° N
CZ-2C R/B 3.4 23:12:49 10° NNE 23:17:05 34° E 23:17:05 34° E
IGS 5A 3.8 23:19:09 54° NE 23:19:09 54° NE 23:22:47 10° N
Cosmos 1340 3.0 23:14:55 10° N 23:18:05 60° N 23:18:05 60° N
SPOT 1/Viking Rocket 3.5 23:22:20 60° SSW 23:23:12 76° WSW 23:28:21 10° NNW
H-2A R/B 3.5 23:21:14 22° SW 23:23:35 32° W 23:28:20 10° NW
Cosmos 1110 Rocket 4.1 23:20:29 10° NNW 23:25:36 64° WSW 23:26:21 56° SSW
Cosmos 1300 3.8 23:29:12 10° N 23:31:48 40° NNE 23:31:48 40° NNE
Cosmos 1331 Rocket 4.4 23:34:53 10° NNW 23:39:56 52° WSW 23:40:25 50° WSW
Cosmos 1842 Rocket 4.0 23:37:00 10° NNW 23:40:56 55° WNW 23:40:56 55° WNW
USA 238 DEB 3.7 23:35:27 10° NNW 23:42:38 79° WSW 23:44:13 58° S
USA 238 3.7 23:35:34 10° NNW 23:42:45 80° WSW 23:44:19 58° S
ATLAS 3B R/B 2.5 23:36:47 10° NNW 23:43:25 79° ENE 23:44:26 64° SE
Helios 1A 4.2 23:45:57 35° W 23:45:57 35° W 23:49:32 10° NNW
SPOT 5 3.9 23:47:50 37° WSW 23:48:27 38° W 23:53:16 10° NNW
Cosmos 1726 4.1 23:47:28 10° NW 23:50:03 24° WNW 23:50:03 24° WNW
Cosmos 2278 Rocket 2.7 23:50:06 38° WSW 23:52:02 55° WNW 23:57:37 10° NNE
Cosmos 2315 Rocket 3.8 23:52:00 73° SSE 23:52:38 84° E 23:58:59 10° N
